Location: *
(47.8307°S, 178.3954°E)
Time: 06:35:07
(UTC+00:00)

USA 281 - Pass Details

Date: 12 August 2024
Orbit: 1078 x 1081 km, 106.0° (Epoch: 16 September)

Event Time Altitude Azimuth Distance (km) Brightness Sun altitude
Rises 15:42:00 0° 156° (SSE) 3,915 6.7 -35.6°
Reaches altitude 10° 15:44:33 10° 158° (SSE) 2,954 5.9 -35.2°
Enters shadow 15:49:11 47° 174° (S) 1,414 3.8 -34.4°
